[Iaude] MPEC M110: 2024 ME1 [a=1.28,e=0.19,i=14.8,H=24.8]

mpec at cfa.harvard.edu mpec at cfa.harvard.edu
Fri Jun 28 18:58:30 EDT 2024


M.P.E.C. 2024-M110                                Issued 2024 June 28, 22:56 UT

     The Minor Planet Electronic Circulars contain information on unusual
         minor planets, routine data on comets and natural satellites,
         and occasional editorial announcements.  They are published
    on behalf of Division F of the International Astronomical Union by the
          Minor Planet Center, Smithsonian Astrophysical Observatory,
                          Cambridge, MA 02138, U.S.A.
			  
             Prepared using the Tamkin Foundation Computer Network

                              MPC at CFA.HARVARD.EDU
            URL https://www.minorplanetcenter.net/    ISSN 1523-6714

                                    2024 ME1                                    


Observations:
     K24M01E* C2024 06 27.49525218 26 48.128+28 37 51.97         20.90wXEM110F51
     K24M01E  C2024 06 27.50263218 26 48.936+28 37 14.16         21.20wXEM110F51
     K24M01E  C2024 06 27.51010118 26 49.788+28 36 35.54         20.85wXEM110F51
     K24M01E  C2024 06 27.58291018 26 58.548+28 30 13.09         20.76GVEM110F52
     K24M01E  C2024 06 27.58356318 26 58.635+28 30 09.32         20.94GVEM110F52
     K24M01E mC2024 06 28.30272818 29 08.293+27 26 05.50         20.28GVEM110I52
     K24M01E mC2024 06 28.30469718 29 08.527+27 25 54.26         21.14GVEM110I52
     K24M01E mC2024 06 28.30516718 29 08.603+27 25 52.03         20.72GVEM110I52
     K24M01E mC2024 06 28.31498518 29 09.798+27 24 56.77         20.87GVEM110I52
     K24M01E  C2024 06 28.47156818 29 35.845+27 10 29.27         20.32GVEM110F51
     K24M01E  C2024 06 28.47238418 29 35.942+27 10 24.57         20.59GVEM110F51
     K24M01E KC2024 06 28.88526818 30 56.97 +26 28 24.6          20.7 GXEM110595
     K24M01E IC2024 06 28.90347718 30 59.67 +26 26 34.5          20.6 GXEM110595
     K24M01E IC2024 06 28.92164118 31 02.28 +26 24 43.6          19.9 GXEM110595

Observer details:
595 Farra d'Isonzo.  Observer E. Pettarin.  0.61-m f/4.5 reflector + CCD.
F51 Pan-STARRS 1, Haleakala.  Observers J. Herman, T. Lowe, P. Minguez, A.
    Schultz, I. Smith.  Measurers K. Chambers, T. de Boer, J. Fairlamb, H.
    Gao, M. Huber, C.-C. Lin, E. Magnier, Y. Ramanjooloo, R. Wainscoat, R.
    Weryk.  1.8-m Ritchey-Chretien + CCD.
F52 Pan-STARRS 2, Haleakala.  Observers J. Herman, T. Lowe, P. Minguez, A.
    Schultz, I. Smith.  Measurers K. Chambers, T. de Boer, J. Fairlamb, H.
    Gao, M. Huber, C.-C. Lin, E. Magnier, Y. Ramanjooloo, R. Wainscoat, R.
    Weryk.  1.8-m Ritchey-Chretien + CCD.
I52 Steward Observatory, Mt. Lemmon Station.  Observer J. K. Hogan.  Measurers
    T. Beuden, V. F. Carvajal, D. Fay, J. B. Fazekas, D. C. Fuls, A. R. Gibbs,
    A. D. Grauer, H. Groeller, J. K. Hogan, R. A. Kowalski, S. M. Larson, G.
    J. Leonard, D. Rankin, R. L. Seaman, F. C. Shelly, K. W. Wierzchos.  1.0-m
    prime focus + CCD.

Orbital elements:
2024 ME1                                                 Earth MOID = 0.0290 AU
Epoch 2024 Mar. 31.0 TT = JDT 2460400.5                 MPC                     
M 278.62113              (2000.0)            P               Q                  
n   0.67863683     Peri.  199.71305     +0.59502089     +0.76584625             
a   1.2824618      Node   107.56704     -0.69882186     +0.64281650             
e   0.1919348      Incl.   14.81548     -0.39698633     +0.01632373             
P   1.45           H   24.85          G   0.15           U   8                  
Residuals in seconds of arc
240627 F51  0.0   0.0     240628 I52  0.0   0.2-    240628 F51  0.0   0.1+
240627 F51  0.1-  0.1+    240628 I52  0.1-  0.4-    240628 595  0.0   0.3+
240627 F51  0.1+  0.0     240628 I52  0.1+  0.0     240628 595  0.3+  0.1+
240627 F52  0.0   0.3+    240628 I52  0.1-  0.1+    240628 595  0.1-  0.3-
240627 F52  0.0   0.0     240628 F51  0.0   0.0

Ephemeris:
2024 ME1                 a,e,i = 1.28, 0.19, 15                  q = 1.0363
Date    TT    R. A. (2000) Decl.     Delta      r    Elong.  Phase     V
2024 05 29    17 52 11.4 +37 36 13   0.2067  1.1234   117.3    53.3    23.6
...
2024 06 13    18 03 51.7 +37 26 36   0.1375  1.0883   118.7    54.9    22.7
...
2024 06 21    18 13 30.3 +34 35 39   0.1002  1.0725   121.9    53.6    22.0
...
2024 06 27    18 25 32.6 +29 17 30   0.07280 1.0623   127.4    49.5    21.1
2024 06 28    18 28 15.3 +27 54 06   0.06835 1.0608   128.8    48.3    21.0
2024 06 29    18 31 15.0 +26 17 29   0.06395 1.0592   130.5    46.9    20.8
...
2024 07 05    18 58 37.7 +08 37 07   0.04005 1.0511   148.6    30.3    19.3
...
2024 07 13    20 49 11.5 -51 16 10   0.03131 1.0429   146.8    32.3    18.8
...
2024 07 28    03 37 17.6 -67 12 49   0.08799 1.0361   101.2    74.1    22.2

A. U. Tomatic                (C) Copyright 2024 MPC           M.P.E.C. 2024-M110





More information about the Iaude mailing list